Simultaneous Nadir Overpasses (SNOs) Predictions

Prediction of SNOs near US between AQUA and NPP Satellite Orbit:

Table of predicted SNOs near US for the next 10.0 days since TLE Epoch: 5/18/2018
Index Date (AQUA) Time (AQUA) AQUA Lat,Lon Date (NPP) Time (NPP) NPP Lat,Lon Distance(km) Time Diff (sec)
1 05/19/2018 09:25:02 20.04,-114.23 05/19/2018 09:16:43 19.66,-114.80 72.62 499
2 05/22/2018 06:31:13 44.93, -65.56 05/22/2018 06:30:48 45.27, -67.57 162.26 25
3 05/22/2018 08:08:42 49.93, -88.34 05/22/2018 08:10:49 50.39, -90.81 183.06 127
4 05/22/2018 09:47:35 49.93,-113.06 05/22/2018 09:52:16 50.56,-116.11 227.45 281
5 05/24/2018 19:06:51 49.99, -92.53 05/24/2018 19:01:06 49.66, -94.39 138.65 345
6 05/24/2018 20:45:44 49.99,-117.25 05/24/2018 20:42:34 49.55,-119.72 183.93 190




NCC Satellite Simultaneous Nadir Overpasses (SNOs) Prediction Service
